Retour au catalogue

STARLINK-36084

ActifCommunicationsVLEO
NORAD 66829·PAYLOAD·🇺🇸 United States

Lancé Dec 2, 2025 depuis Vandenberg Space Force Base

Loading…

Prochains Passages (prochaines 24 heures)

TLE

FraisSource: CelesTrak SupGP

Époque: Sep 15, 2026, 03:20 UTC

1 66829C 25280J   26258.13937500 -.00009338  00000+0 -78289-3 0  2588
2 66829  70.0009 216.7212 0002986 271.8827 143.3165 14.98319606    11

Suivez STARLINK-36084 en temps réel avec AllMySat

Download on the App Store